Weather in Lome

Togo     6°10′05″N   1°14′36″E
temp.,
°C
wind,
m/s
gust,
m/s
humid.,
%
clouds,
%
prec.,
mm/h
press.,
hPa
HPBL,
m
12 august, fri
fri1200:00+24sw4879100 0.0 1013543
03:00+24sw4980100 0.0 1012533
06:00+24wsw398078 0.0 1013533
09:00+27wsw576295 0.0 1014900
12:00+30ssw565199 0.1 10131640
15:00+28ssw6858100 0.2 1011882
18:00+27sw4758100 0.2 1012661
21:00+25sw51171100 0.2 1014580
13 august, sat
sat1300:00+24sw5127599 0.2 1014696
03:00+24sw51178100 0.0 1013643
06:00+23sw41082100 0.0 1014661
09:00+27wsw576181 0.0 10151261
12:00+30sw575080 0.1 10141630
15:00+30sw575399 0.1 10111524
18:00+26sw687192 0.1 1013706
21:00+24sw51178100 0.3 1015597
14 august, sun
sun1400:00+24sw51080100 0.3 1015529
03:00+23wsw4983100 0.3 1013538
06:00+23wsw41086100 0.8 1013599
09:00+24wsw51077100 0.2 1014800
12:00+25wsw5874100 0.4 10131002
15:00+24sw5882100 0.6 1011744
18:00+23sw41087100 1.0 1012656
21:00+23sw51188100 0.3 1013612
15 august, mon
mon1500:00+22sw51190100 1.1 1013723
03:00+22sw51193100 2.9 1011753
06:00+22sw5119186 3.1 1012727
09:00+23sw51085100 0.1 1014770
12:00+23sw41088100 0.3 1013708
15:00+23sw4984100 0.1 1011730
18:00+23sw3984100 0.1 1012696
21:00+23ssw3889100 0.2 1014652
16 august, tue
tue1600:00+22sw498960 0.2 1013618
03:00+23sw398990 0.1 1012655
06:00+22sw389095 0.1 1014587
09:00+26sw576997 0.0 10151002
12:00+27ssw6763100 0.1 10141131
15:00+28ssw675978 0.1 10121108
18:00+25ssw576723 0.1 1013680
21:00+24ssw48766 0.0 1015518